TimeEDT,TemperatureF,Dew PointF,Humidity,Sea Level PressureIn,VisibilityMPH,Wind Direction,Wind SpeedMPH,Gust SpeedMPH,PrecipitationIn,Events,Conditions,WindDirDegrees,DateUTC
12:54 AM,54.0,48.0,80,30.10,9.0,North,9.2,-,N/A,,Overcast,10,2012-10-09 04:54:00
1:54 AM,54.0,48.9,83,30.09,10.0,North,8.1,-,N/A,,Overcast,10,2012-10-09 05:54:00
2:54 AM,55.0,50.0,83,30.09,10.0,North,8.1,-,N/A,,Overcast,360,2012-10-09 06:54:00
3:30 AM,55.9,50.0,80,30.10,9.0,North,9.2,-,N/A,,Overcast,360,2012-10-09 07:30:00
3:54 AM,55.9,50.0,80,30.09,9.0,North,9.2,-,0.00,Rain,Light Rain,360,2012-10-09 07:54:00
4:03 AM,55.9,50.0,80,30.09,9.0,North,10.4,-,0.00,Rain,Light Rain,360,2012-10-09 08:03:00
4:37 AM,55.9,50.0,80,30.09,9.0,North,10.4,-,0.00,Rain,Light Rain,360,2012-10-09 08:37:00
4:54 AM,55.9,51.1,84,30.07,4.0,NNE,10.4,-,0.07,Rain,Light Rain,20,2012-10-09 08:54:00
5:01 AM,55.9,51.1,84,30.08,5.0,NNE,13.8,-,0.00,Rain,Light Rain,20,2012-10-09 09:01:00
5:29 AM,55.9,51.1,84,30.09,7.0,North,11.5,-,0.01,Rain,Light Rain,360,2012-10-09 09:29:00
5:54 AM,55.9,51.1,84,30.08,6.0,North,11.5,-,0.04,Rain,Light Rain,360,2012-10-09 09:54:00
6:54 AM,55.0,50.0,83,30.08,8.0,North,10.4,-,0.01,Rain,Light Rain,360,2012-10-09 10:54:00
7:02 AM,55.0,50.0,83,30.09,7.0,North,10.4,-,0.01,Rain,Light Rain,10,2012-10-09 11:02:00
7:09 AM,55.0,50.0,83,30.09,7.0,North,12.7,-,0.01,Rain,Light Rain,10,2012-10-09 11:09:00
7:18 AM,55.0,48.9,80,30.09,7.0,North,9.2,-,0.01,Rain,Light Rain,10,2012-10-09 11:18:00
7:54 AM,55.0,50.0,83,30.09,5.0,North,11.5,-,0.01,Rain,Light Rain,10,2012-10-09 11:54:00
8:54 AM,55.0,50.0,83,30.10,3.0,North,9.2,-,0.02,Rain,Light Rain,360,2012-10-09 12:54:00
9:54 AM,55.9,51.1,84,30.11,4.0,NNE,11.5,-,0.01,Rain,Light Rain,20,2012-10-09 13:54:00
10:42 AM,57.0,52.0,83,30.12,2.5,North,9.2,-,0.02,Rain,Light Rain,10,2012-10-09 14:42:00
10:49 AM,57.2,53.6,88,30.12,2.0,North,8.1,-,0.03,Rain,Light Rain,360,2012-10-09 14:49:00
10:54 AM,57.9,53.1,84,30.11,2.5,North,9.2,-,0.03,Rain,Light Rain,360,2012-10-09 14:54:00
11:04 AM,57.9,53.1,84,30.12,3.0,North,9.2,-,0.00,Rain,Light Rain,10,2012-10-09 15:04:00
11:19 AM,57.9,53.1,84,30.12,2.5,North,8.1,-,0.01,Rain,Light Rain,360,2012-10-09 15:19:00
11:33 AM,57.9,53.1,84,30.11,3.0,NNE,10.4,-,0.02,Rain,Light Rain,20,2012-10-09 15:33:00
11:38 AM,57.9,53.1,84,30.11,2.0,North,9.2,-,0.03,Rain,Light Rain,10,2012-10-09 15:38:00
11:52 AM,59.0,53.6,82,30.10,3.0,NNE,11.5,-,0.04,Rain,Light Rain,20,2012-10-09 15:52:00
11:53 AM,59.0,54.0,83,30.09,3.0,NNE,11.5,-,0.04,Rain,Light Rain,20,2012-10-09 15:53:00
12:44 PM,60.1,54.0,80,30.09,10.0,NNE,9.2,-,0.00,,Overcast,20,2012-10-09 16:44:00
12:54 PM,60.1,54.0,80,30.08,10.0,NNE,9.2,-,0.00,,Overcast,20,2012-10-09 16:54:00
1:54 PM,61.0,55.0,81,30.06,6.0,North,8.1,-,0.00,Rain,Light Rain,10,2012-10-09 17:54:00
2:30 PM,61.0,55.0,81,30.06,9.0,NNE,10.4,-,0.00,,Overcast,20,2012-10-09 18:30:00
2:54 PM,62.1,55.0,78,30.06,8.0,North,9.2,-,0.00,,Overcast,10,2012-10-09 18:54:00
3:30 PM,61.0,55.0,81,30.06,9.0,North,9.2,-,N/A,,Overcast,10,2012-10-09 19:30:00
3:54 PM,63.0,55.9,78,30.05,10.0,North,9.2,-,N/A,,Overcast,360,2012-10-09 19:54:00
4:41 PM,63.0,55.9,78,30.06,10.0,North,9.2,-,N/A,,Mostly Cloudy,10,2012-10-09 20:41:00
4:54 PM,63.0,55.9,78,30.05,10.0,North,6.9,-,N/A,,Overcast,10,2012-10-09 20:54:00
5:18 PM,63.0,55.9,78,30.05,10.0,NNE,9.2,-,N/A,,Overcast,20,2012-10-09 21:18:00
5:54 PM,62.1,55.9,80,30.05,10.0,North,6.9,-,N/A,,Overcast,360,2012-10-09 21:54:00
6:20 PM,62.1,55.9,80,30.05,8.0,North,6.9,-,N/A,,Overcast,10,2012-10-09 22:20:00
6:52 PM,60.8,55.4,82,30.06,6.0,NNW,5.8,-,N/A,,Haze,330,2012-10-09 22:52:00
6:54 PM,61.0,55.9,83,30.05,6.0,NNW,8.1,-,N/A,,Haze,340,2012-10-09 22:54:00
7:34 PM,61.0,55.9,83,30.05,9.0,North,6.9,-,N/A,,Overcast,350,2012-10-09 23:34:00
7:54 PM,61.0,55.9,83,30.05,8.0,North,6.9,-,N/A,,Overcast,350,2012-10-09 23:54:00
8:54 PM,61.0,55.0,81,30.05,9.0,North,5.8,-,N/A,,Overcast,360,2012-10-10 00:54:00
9:26 PM,61.0,55.0,81,30.06,7.0,North,6.9,-,N/A,,Overcast,350,2012-10-10 01:26:00
9:54 PM,61.0,55.0,81,30.05,6.0,North,8.1,-,N/A,,Haze,360,2012-10-10 01:54:00
10:54 PM,60.1,55.0,83,30.04,5.0,North,6.9,-,0.00,,Haze,360,2012-10-10 02:54:00
11:54 PM,60.1,55.0,83,30.03,4.0,North,6.9,-,N/A,,Haze,10,2012-10-10 03:54:00